Regional Weather Roundup
Issued by NWS Northern Indiana

Home | Current Version | Previous Version | Text Only | Print | Product List | Glossary Off
Versions: 1 2 3 4 5 6 7 8 9 10 11 12 13 14 15 16 17 18 19 20 21 22 23 24 25 26 27 28 29 30 31 32 33 34 35 36 37 38 39 40 41 42 43 44 45 46 47 48 49 50

000
ASUS43 KIWX 240600
RWRIWX

KIWX WEATHER ROUNDUP
NATIONAL WEATHER SERVICE NORTHERN INDIANA
200 AM EDT THU MAY 24 2018

NOTE: "FAIR" INDICATES FEW OR NO CLOUDS BELOW 12,000 FEET WITH NO
SIGNIFICANT WEATHER AND/OR OBSTRUCTIONS TO VISIBILITY.

* THESE STATIONS ARE NOT UNDER NWS QUALITY CONTROL. THEY ALSO MAY NOT
  REPORT WEATHER SUCH AS PRECIPITATION OR FOG.

INZ001>027-240700-
NORTHERN INDIANA

CITY           SKY/WX    TMP DP  RH WIND       PRES   REMARKS
SOUTH BEND     FAIR      56  53  90 CALM      30.21S
6HR MIN TEMP:  56; 6HR MAX TEMP:  73;

GOSHEN         FAIR      58  55  90 CALM      30.20S
6HR MIN TEMP:  57; 6HR MAX TEMP:  75;

FORT WAYNE     FAIR      63  52  67 SE5       30.21S
6HR MIN TEMP:  62; 6HR MAX TEMP:  75;


$$
INZ028>050-240700-
CENTRAL INDIANA

CITY           SKY/WX    TMP DP  RH WIND       PRES   REMARKS
LAFAYETTE      FAIR      60  54  80 CALM      30.17S
6HR MIN TEMP:  59; 6HR MAX TEMP:  76;

KOKOMO*        FAIR      62  53  72 E6        30.20F
6HR MIN TEMP:  62; 6HR MAX TEMP:  76; 6HR PCP: TRACE;

MUNCIE*        FAIR      61  53  75 SE3       30.20F
6HR MIN TEMP:  60; 6HR MAX TEMP:  78;

INDIANAPOLIS   FAIR      67  53  61 E8        30.17F
6HR MIN TEMP:  67; 6HR MAX TEMP:  79;


$$
MIZ043>046-050>051-056>058-064>065-071>073-077>080-240700-
SOUTHWEST LOWER MICHIGAN

CITY           SKY/WX    TMP DP  RH WIND       PRES   REMARKS
BATTLE CREEK   FAIR      57  54  89 CALM      30.22R
6HR MIN TEMP:  56; 6HR MAX TEMP:  76;

BENTON HARBOR  FAIR      53  51  93 CALM      30.20S
6HR MIN TEMP:  53; 6HR MAX TEMP:  69;

COLDWATER*     FAIR      56  56  99 CALM      30.21S
6HR MIN TEMP:  56; 6HR MAX TEMP:  74;

HILLSDALE*     FAIR      54  50  87 CALM      30.21S
HOLLAND        FAIR      56  53  90 CALM      30.20S
6HR MIN TEMP:  54; 6HR MAX TEMP:  69;

GRAND RAPIDS   FAIR      57  55  93 CALM      30.21R
6HR MIN TEMP:  56; 6HR MAX TEMP:  73;

KALAMAZOO      FAIR      57  55  93 CALM      30.21S FOG
6HR MIN TEMP:  57; 6HR MAX TEMP:  78;

STURGIS*       FAIR      57  53  86 E3        30.20F
6HR MIN TEMP:  57; 6HR MAX TEMP:  75;

THREE RIVERS*  FAIR      56  55  95 CALM      30.22S
6HR MIN TEMP:  56; 6HR MAX TEMP:  74;


$$
OHZ001>008-015>018-024>025-240700-
NORTHWEST OHIO

CITY           SKY/WX    TMP DP  RH WIND       PRES   REMARKS
DEFIANCE       FAIR      57  52  83 CALM      30.20S
6HR MIN TEMP:  57; 6HR MAX TEMP:  75;

FINDLAY        FAIR      59  52  77 CALM      30.20S
6HR MIN TEMP:  57; 6HR MAX TEMP:  72;

TOLEDO EXPRESS FAIR      57  56  96 CALM      30.20S
6HR MIN TEMP:  56; 6HR MAX TEMP:  77;

TOLEDO METCALF FAIR      62  51  67 CALM      30.21S
6HR MIN TEMP:  60; 6HR MAX TEMP:  75;

LIMA           FAIR      57  51  80 CALM      30.21F
6HR MIN TEMP:  55; 6HR MAX TEMP:  72;


$$
AND FOR LAKE MICHIGAN COASTAL AND OPEN LAKE BUOY OBSERVATIONS

STATION/POSITION TEMP    WIND        PRES    VSBY  WAVE
                 AIR SEA DIR/SP/G                  HT/PER
                 (F)     (DEG/KT/KT) (MB)    (MI)  (FT/S)
CALUMET HARBOR    57      40/  1/  1 1021.7F
MICHIGAN CITY     60      60/  1/  2   N/A
BURNS HARBOR      60        CALM     1022.7F
SAINT JOSEPH      60      CALM  /  2 1023.4
SOUTH LAKE BUOY   49 39  130/  6/  6 1022.9S         0
4 MI NW BRIDGMAN  60 55  100/  2/  2 1022.6F         0
MICHIGAN CITY     57 57   60/  2/  4   N/A           0

$$
&&



USA.gov is the U.S. government's official web portal to all federal, state and local government web resources and services.